EN

Hourly Weather Bolshie Yaki

Today, 21 October, Wednesday

Time Temperature Precipitation Wind Pressure Humidity
00:00 0°C° 0.3 mm 3 mps 749 mmHg 95%
01:00 0°C° 0 mm 3 mps 749 mmHg 93%
02:00 0°C° 0 mm 3 mps 749 mmHg 91%
03:00 -1°C° 0 mm 4 mps 749 mmHg 90%
04:00 -2°C° 0 mm 4 mps 749 mmHg 91%
05:00 -2°C° 0 mm 4 mps 749 mmHg 92%
06:00 -2°C° 0 mm 5 mps 749 mmHg 92%
07:00 -1°C° 0.1 mm 5 mps 749 mmHg 85%
08:00 -2°C° 0.1 mm 6 mps 749 mmHg 78%
09:00 -2°C° 0.1 mm 6 mps 750 mmHg 71%
10:00 -2°C° 0 mm 6 mps 750 mmHg 70%
11:00 -2°C° 0 mm 6 mps 750 mmHg 69%
12:00 -2°C° 0 mm 6 mps 750 mmHg 68%
13:00 -2°C° 0 mm 6 mps 751 mmHg 69%
14:00 -2°C° 0 mm 6 mps 751 mmHg 69%
15:00 -2°C° 0 mm 6 mps 751 mmHg 69%
16:00 -1°C° 0.1 mm 5 mps 751 mmHg 74%
17:00 -2°C° 0.1 mm 5 mps 752 mmHg 79%
18:00 -2°C° 0.1 mm 5 mps 752 mmHg 85%
19:00 -2°C° 0 mm 5 mps 752 mmHg 84%
20:00 -4°C° 0 mm 5 mps 752 mmHg 84%
21:00 -4°C° 0 mm 5 mps 752 mmHg 83%
22:00 -4°C° 0 mm 5 mps 752 mmHg 84%
23:00 -3°C° 0 mm 4 mps 752 mmHg 84%

Tomorrow, 22 October, Thursday

Time Temperature Precipitation Wind Pressure Humidity
00:00 -3°C° 0 mm 4 mps 752 mmHg 84%
01:00 -3°C° 0 mm 4 mps 753 mmHg 86%
02:00 -3°C° 0 mm 4 mps 753 mmHg 88%
03:00 -4°C° 0 mm 4 mps 753 mmHg 89%
04:00 -4°C° 0 mm 4 mps 753 mmHg 89%
05:00 -4°C° 0 mm 4 mps 753 mmHg 89%
06:00 -4°C° 0 mm 4 mps 753 mmHg 89%
07:00 -3°C° 0 mm 4 mps 754 mmHg 85%
08:00 -3°C° 0 mm 4 mps 754 mmHg 81%
09:00 -2°C° 0 mm 5 mps 754 mmHg 78%
10:00 -2°C° 0 mm 4 mps 754 mmHg 74%
11:00 -1°C° 0 mm 4 mps 754 mmHg 71%
12:00 0°C° 0 mm 4 mps 754 mmHg 67%
13:00 0°C° 0 mm 4 mps 754 mmHg 67%
14:00 0°C° 0 mm 4 mps 755 mmHg 66%
15:00 +1°C° 0 mm 3 mps 755 mmHg 66%
16:00 0°C° 0 mm 3 mps 755 mmHg 68%
17:00 +1°C° 0 mm 2 mps 755 mmHg 70%
18:00 +1°C° 0 mm 2 mps 755 mmHg 73%
19:00 +1°C° 0 mm 1 mps 755 mmHg 75%
20:00 +1°C° 0 mm 1 mps 755 mmHg 77%
21:00 -1°C° 0 mm 0 mps 755 mmHg 79%
22:00 0°C° 0 mm 1 mps 755 mmHg 81%
23:00 0°C° 0 mm 1 mps 754 mmHg 82%

Day after tomorrow, 23 October, Friday

Time Temperature Precipitation Wind Pressure Humidity
00:00 -1°C° 0 mm 1 mps 754 mmHg 84%
01:00 -1°C° 0 mm 1 mps 754 mmHg 84%
02:00 -1°C° 0 mm 1 mps 754 mmHg 84%
03:00 -3°C° 0 mm 2 mps 753 mmHg 83%
04:00 -2°C° 0 mm 2 mps 753 mmHg 82%
05:00 -2°C° 0 mm 3 mps 752 mmHg 81%
06:00 -2°C° 0 mm 3 mps 752 mmHg 80%
07:00 -2°C° 0 mm 4 mps 752 mmHg 81%
08:00 -1°C° 0 mm 4 mps 751 mmHg 83%
09:00 -1°C° 0 mm 5 mps 751 mmHg 85%
10:00 0°C° 0.2 mm 5 mps 750 mmHg 88%
11:00 -1°C° 0.2 mm 6 mps 750 mmHg 92%
12:00 -1°C° 0.2 mm 6 mps 749 mmHg 95%
13:00 +1°C° 0.3 mm 6 mps 749 mmHg 95%
14:00 +1°C° 0.3 mm 6 mps 748 mmHg 95%
15:00 +1°C° 0.3 mm 6 mps 747 mmHg 94%
16:00 +2°C° 0.9 mm 5 mps 747 mmHg 95%
17:00 +2°C° 0.9 mm 5 mps 746 mmHg 95%
18:00 +2°C° 0.9 mm 5 mps 746 mmHg 96%
19:00 +3°C° 0.5 mm 4 mps 746 mmHg 97%
20:00 +3°C° 0.5 mm 4 mps 745 mmHg 97%
21:00 +3°C° 0.5 mm 3 mps 745 mmHg 98%
22:00 +4°C° 0.2 mm 3 mps 745 mmHg 97%
23:00 +4°C° 0.2 mm 3 mps 744 mmHg 97%

24 October, Saturday

Time Temperature Precipitation Wind Pressure Humidity
00:00 +5°C° 0.2 mm 3 mps 744 mmHg 97%
01:00 +5°C° 0.5 mm 3 mps 744 mmHg 97%
02:00 +5°C° 0.5 mm 3 mps 744 mmHg 97%
03:00 +6°C° 0.5 mm 4 mps 744 mmHg 98%
04:00 +6°C° 1.2 mm 4 mps 743 mmHg 97%
05:00 +6°C° 1.2 mm 4 mps 743 mmHg 97%
06:00 +6°C° 1.2 mm 4 mps 742 mmHg 97%
07:00 +6°C° 0.7 mm 4 mps 742 mmHg 97%
08:00 +7°C° 0.7 mm 3 mps 741 mmHg 97%
09:00 +7°C° 0.7 mm 3 mps 741 mmHg 98%
10:00 +8°C° 0.2 mm 3 mps 741 mmHg 96%
11:00 +8°C° 0.2 mm 4 mps 741 mmHg 94%
12:00 +8°C° 0.2 mm 4 mps 741 mmHg 92%
13:00 +8°C° 0 mm 4 mps 742 mmHg 92%
14:00 +9°C° 0 mm 3 mps 742 mmHg 91%
15:00 +10°C° 0 mm 3 mps 743 mmHg 91%
16:00 +9°C° 0 mm 3 mps 744 mmHg 91%
17:00 +8°C° 0 mm 3 mps 744 mmHg 90%
18:00 +8°C° 0 mm 3 mps 745 mmHg 90%
19:00 +8°C° 0 mm 3 mps 745 mmHg 88%
20:00 +8°C° 0 mm 3 mps 746 mmHg 86%
21:00 +8°C° 0 mm 3 mps 746 mmHg 84%
22:00 +8°C° 0 mm 3 mps 746 mmHg 85%
23:00 +8°C° 0 mm 2 mps 747 mmHg 87%

25 October, Sunday

Time Temperature Precipitation Wind Pressure Humidity
00:00 +8°C° 0 mm 2 mps 747 mmHg 89%
01:00 +8°C° 0 mm 2 mps 747 mmHg 89%
02:00 +8°C° 0 mm 2 mps 747 mmHg 89%
03:00 +8°C° 0 mm 1 mps 747 mmHg 89%
04:00 +8°C° 0 mm 1 mps 747 mmHg 89%
05:00 +8°C° 0 mm 1 mps 747 mmHg 89%
06:00 +8°C° 0 mm 1 mps 747 mmHg 88%
07:00 +9°C° 0 mm 1 mps 747 mmHg 87%
08:00 +9°C° 0 mm 1 mps 747 mmHg 85%
09:00 +9°C° 0 mm 1 mps 747 mmHg 84%
10:00 +10°C° 0 mm 1 mps 747 mmHg 82%
11:00 +10°C° 0 mm 1 mps 747 mmHg 80%
12:00 +11°C° 0 mm 1 mps 747 mmHg 78%
13:00 +11°C° 0 mm 1 mps 747 mmHg 79%
14:00 +10°C° 0 mm 2 mps 747 mmHg 80%
15:00 +9°C° 0 mm 2 mps 747 mmHg 80%
16:00 +9°C° 0.1 mm 2 mps 747 mmHg 83%
17:00 +9°C° 0.1 mm 2 mps 747 mmHg 86%
18:00 +8°C° 0.1 mm 2 mps 747 mmHg 90%
19:00 +8°C° 0.2 mm 3 mps 747 mmHg 90%
20:00 +8°C° 0.2 mm 3 mps 747 mmHg 90%
21:00 +7°C° 0.2 mm 4 mps 747 mmHg 90%
22:00 +7°C° 0.1 mm 4 mps 747 mmHg 89%
23:00 +7°C° 0.1 mm 4 mps 747 mmHg 89%

26 October, Monday

Time Temperature Precipitation Wind Pressure Humidity
00:00 +7°C° 0.1 mm 5 mps 747 mmHg 88%
01:00 +7°C° 0 mm 5 mps 747 mmHg 88%
02:00 +7°C° 0 mm 5 mps 748 mmHg 87%
03:00 +7°C° 0 mm 5 mps 748 mmHg 87%
04:00 +6°C° 0 mm 5 mps 749 mmHg 88%
05:00 +6°C° 0 mm 5 mps 749 mmHg 89%
06:00 +5°C° 0 mm 5 mps 750 mmHg 90%
07:00 +5°C° 0 mm 5 mps 751 mmHg 88%
08:00 +5°C° 0 mm 5 mps 752 mmHg 86%
09:00 +5°C° 0 mm 5 mps 752 mmHg 84%
10:00 +6°C° 0 mm 5 mps 753 mmHg 79%
11:00 +6°C° 0 mm 5 mps 754 mmHg 73%
12:00 +7°C° 0 mm 4 mps 754 mmHg 68%
13:00 +6°C° 0 mm 4 mps 755 mmHg 68%
14:00 +6°C° 0 mm 4 mps 755 mmHg 67%
15:00 +7°C° 0 mm 3 mps 756 mmHg 67%
16:00 +5°C° 0 mm 3 mps 756 mmHg 73%
17:00 +4°C° 0 mm 3 mps 757 mmHg 79%
18:00 +4°C° 0 mm 2 mps 757 mmHg 85%
19:00 +4°C° 0 mm 2 mps 757 mmHg 87%
20:00 +4°C° 0 mm 2 mps 758 mmHg 88%
21:00 +3°C° 0 mm 2 mps 758 mmHg 90%
22:00 +4°C° 0 mm 1 mps 758 mmHg 91%
23:00 +4°C° 0 mm 1 mps 758 mmHg 92%

27 October, Tuesday

Time Temperature Precipitation Wind Pressure Humidity
00:00 +4°C° 0 mm 1 mps 759 mmHg 92%
01:00 +4°C° 0 mm 1 mps 759 mmHg 93%
02:00 +4°C° 0 mm 1 mps 759 mmHg 94%
03:00 +4°C° 0 mm 1 mps 759 mmHg 94%
04:00 +3°C° 0 mm 1 mps 759 mmHg 95%
05:00 +3°C° 0 mm 1 mps 760 mmHg 95%
06:00 +3°C° 0 mm 1 mps 760 mmHg 96%
07:00 +4°C° 0 mm 1 mps 760 mmHg 94%
08:00 +5°C° 0 mm 1 mps 760 mmHg 93%
09:00 +5°C° 0 mm 2 mps 761 mmHg 91%
10:00 +6°C° 0 mm 2 mps 761 mmHg 87%
11:00 +7°C° 0 mm 2 mps 761 mmHg 83%
12:00 +8°C° 0 mm 2 mps 761 mmHg 79%
13:00 +8°C° 0 mm 2 mps 761 mmHg 80%
14:00 +8°C° 0 mm 2 mps 761 mmHg 82%
15:00 +8°C° 0 mm 2 mps 761 mmHg 83%
16:00 +7°C° 0 mm 2 mps 762 mmHg 86%
17:00 +6°C° 0 mm 2 mps 762 mmHg 89%
18:00 +5°C° 0 mm 2 mps 762 mmHg 92%
19:00 +5°C° 0 mm 2 mps 762 mmHg 93%
20:00 +5°C° 0 mm 2 mps 762 mmHg 93%
21:00 +4°C° 0 mm 2 mps 762 mmHg 94%
22:00 +4°C° 0 mm 2 mps 762 mmHg 94%
23:00 +4°C° 0 mm 2 mps 762 mmHg 94%
Show more